EW3281 Weather Reports


Display with metric or nautical units.
time (UTC)temp
F
wind
direction
speed
MPH
gust
MPH
rain 1hr
in
rain 24hr
in
rain mn
in
humidity
%
barometer
mb
20260510075019 0 0.0 0.0 0.00 0.45 0.44 1010.5
20260510074017 0 0.0 0.0 0.00 0.45 0.44 1010.4
20260510073515 0 0.0 0.0 0.00 0.45 0.44 1010.3
20260510073014 0 0.0 0.0 0.00 0.45 0.44 1010.2
20260510072512 0 0.0 0.0 0.00 0.45 0.44 1010.1
20260510072012 0 0.0 0.0 0.00 0.45 0.44 1010.1
20260510071510 0 0.0 0.0 0.00 0.45 0.44 1009.9
20260510071008 -90 321 0.0 0.0 0.00 0.45 0.44 96 1009.9
20260510070507 -90 321 0.0 0.0 0.00 0.45 0.44 96 1009.9
20260510070008 52 188 0.0 0.0 0.00 0.45 0.44 97 1009.9
20260510065510 52 186 0.0 0.0 0.00 0.45 0.44 97 1009.9
20260510065008 52 355 0.0 0.0 0.00 0.45 0.44 97 1009.8
20260510064005 52 290 0.0 0.0 0.00 0.45 0.44 97 1009.9
20260510063505 52 283 0.0 0.0 0.00 0.45 0.44 97 1009.8
20260510063005 52 246 0.0 0.0 0.00 0.45 0.44 97 1009.9
20260510062506 52 210 0.0 1.0 0.00 0.45 0.44 97 1009.9
20260510062005 52 210 0.0 0.0 0.00 0.45 0.44 97 1009.9
20260510061509 52 79 0.0 0.0 0.00 0.45 0.44 97 1009.9
20260510061005 52 282 0.0 0.0 0.00 0.45 0.44 97 1010.0
20260510060504 52 127 0.0 0.0 0.00 0.45 0.44 96 1010.0
20260510060006 52 124 0.0 0.0 0.00 0.45 0.44 96 1010.2
20260510055504 52 122 0.0 0.0 0.00 0.45 0.44 96 1010.0
20260510055004 52 27 0.0 1.0 0.00 0.45 0.44 96 1010.0
20260510054005 52 259 0.0 0.0 0.00 0.45 0.44 96 1010.0
20260510053505 52 289 0.0 0.0 0.00 0.45 0.44 96 1009.9
20260510053004 52 77 0.0 0.0 0.00 0.45 0.44 96 1010.0
20260510052503 52 68 0.0 0.0 0.00 0.45 0.44 96 1009.9
20260510052003 52 300 0.0 0.0 0.00 0.45 0.44 96 1009.9
20260510051503 52 23 0.0 0.0 0.00 0.45 0.44 96 1009.9
20260510051003 52 15 0.0 0.0 0.00 0.45 0.44 96 1009.9
20260510050503 52 359 0.0 0.0 0.00 0.45 0.44 96 1009.9
20260510050003 52 44 0.0 0.0 0.00 0.45 0.44 96 1009.9
20260510045503 52 42 0.0 0.0 0.00 0.45 0.44 96 1009.9
20260510045003 52 31 0.0 0.0 0.00 0.45 0.44 96 1010.0
20260510044002 52 27 0.0 0.0 0.00 0.45 0.44 96 1009.9
20260510043502 52 350 0.0 0.0 0.00 0.45 0.44 96 1009.9
20260510043001 52 319 0.0 0.0 0.00 0.45 0.44 96 1010.0
20260510042503 52 319 0.0 0.0 0.00 0.45 0.44 96 1009.9
20260510042001 52 66 0.0 0.0 0.00 0.45 0.44 96 1009.8
20260510041607 52 67 0.0 0.0 0.00 0.45 0.44 96 1009.9
20260510041100 52 67 0.0 0.0 0.00 0.45 0.44 96 1010.0
20260510040600 51 70 0.0 0.0 0.00 0.45 0.44 96 1010.1
20260510040107 51 30 0.0 0.0 0.00 0.45 0.44 96 1010.0
20260510035558 51 30 0.0 0.0 0.00 0.45 0.44 96 1010.1
20260510035103 51 286 0.0 0.0 0.00 0.45 0.44 96 1010.0
20260510034036 51 286 0.0 0.0 0.00 0.45 0.44 96 1010.2
20260510033536 51 286 0.0 0.0 0.00 0.45 0.44 96 1010.2
20260510033034 51 286 0.0 0.0 0.00 0.45 0.44 96 1010.2
20260510032535 51 286 0.0 0.0 0.00 0.45 0.44 96 1010.1
20260510032037 51 286 0.0 0.0 0.00 0.45 0.44 96 1010.1
20260510031540 52 286 0.0 0.0 0.00 0.45 0.44 96 1010.3
20260510031033 52 286 0.0 0.0 0.00 0.45 0.44 96 1010.4
20260510030534 51 286 0.0 0.0 0.01 0.45 0.44 96 1010.4
20260510030036 51 286 0.0 0.0 0.01 0.45 0.44 96 1010.5
20260510025533 51 286 0.0 0.0 0.02 0.45 0.44 96 1010.5
20260510025033 51 286 0.0 0.0 0.02 0.45 0.44 96 1010.5
20260510024034 51 286 0.0 0.0 0.03 0.45 0.44 96 1010.6
20260510023534 51 286 0.0 0.0 0.03 0.45 0.44 96 1010.6
20260510023041 51 286 0.0 0.0 0.03 0.45 0.44 96 1010.6
20260510022536 51 286 0.0 0.0 0.03 0.45 0.44 96 1010.6
20260510022033 51 356 0.0 0.0 0.03 0.45 0.44 95 1010.6
20260510021536 51 356 0.0 0.0 0.03 0.45 0.44 95 1010.7
20260510021033 51 356 0.0 0.0 0.03 0.45 0.44 95 1010.8
20260510020534 51 356 0.0 0.0 0.03 0.45 0.44 95 1010.9
20260510020033 51 356 0.0 0.0 0.02 0.44 0.43 95 1011.0
20260510015536 51 356 0.0 0.0 0.02 0.44 0.43 95 1011.0
20260510015034 51 356 0.0 0.0 0.01 0.43 0.42 95 1011.0
20260510014022 51 356 0.0 0.0 0.01 0.43 0.42 95 1011.2
20260510013525 51 356 0.0 0.0 0.00 0.42 0.41 95 1011.2
20260510013023 51 356 0.0 0.0 0.00 0.42 0.41 95 1011.3
20260510012521 51 356 0.0 0.0 0.00 0.42 0.41 95 1011.3
20260510012023 51 356 0.0 0.0 0.00 0.42 0.41 95 1011.3
20260510011522 51 356 0.0 0.0 0.00 0.42 0.41 95 1011.3
20260510011021 51 356 0.0 0.0 0.00 0.42 0.41 95 1011.3
20260510010521 51 358 0.0 0.0 0.00 0.42 0.41 95 1011.3
20260510010021 51 358 0.0 0.0 0.00 0.42 0.41 95 1011.1
20260510005521 51 358 0.0 0.0 0.00 0.42 0.41 94 1011.3
20260510005021 51 358 0.0 0.0 0.00 0.42 0.41 94 1011.4
20260510004058 51 358 0.0 0.0 0.00 0.42 0.41 94 1011.4
20260510003558 52 358 0.0 0.0 0.00 0.42 0.41 94 1011.4
20260510003103 52 347 0.0 0.0 0.00 0.42 0.41 94 1011.4
20260510002557 52 347 0.0 0.0 0.00 0.42 0.41 94 1011.4
20260510002057 52 322 0.0 0.0 0.00 0.42 0.41 94 1011.4
20260510001556 52 65 0.0 0.0 0.00 0.42 0.41 95 1011.4
20260510001056 52 87 0.0 0.0 0.01 0.42 0.41 95 1011.4
20260510000554 52 89 0.0 0.0 0.01 0.42 0.41 95 1011.4
20260510000054 53 89 0.0 0.0 0.01 0.42 0.41 95 1011.3
20260509235553 53 318 0.0 0.0 0.01 0.42 0.41 95 1011.3
20260509235053 53 43 0.0 0.0 0.01 0.42 0.41 95 1011.3
20260509234015 53 84 0.0 0.0 0.02 0.42 0.41 95 1011.4
20260509233513 53 11 0.0 0.0 0.02 0.42 0.41 95 1011.4
20260509233012 53 61 0.0 0.0 0.02 0.42 0.41 95 1011.5
20260509232512 53 16 0.0 1.0 0.02 0.42 0.41 95 1011.4
20260509232012 54 49 0.0 1.0 0.02 0.42 0.41 95 1011.4
20260509231512 54 29 0.0 0.0 0.02 0.42 0.41 95 1011.5
20260509231011 54 345 0.0 0.0 0.01 0.41 0.40 95 1011.5
20260509230515 54 284 0.0 0.0 0.01 0.41 0.40 95 1011.5
20260509230011 54 23 0.0 0.0 0.02 0.41 0.40 95 1011.4
20260509225511 54 118 0.0 0.0 0.03 0.41 0.40 95 1011.4
20260509225010 54 50 0.0 0.0 0.13 0.41 0.40 95 1011.4
20260509224053 54 59 0.0 0.0 0.16 0.41 0.40 95 1011.3
20260509223553 54 59 0.0 0.0 0.17 0.40 0.39 95 1011.4
20260509223053 54 62 0.0 0.0 0.20 0.40 0.39 95 1011.3
20260509222552 54 44 0.0 1.0 0.22 0.40 0.39 95 1011.2
20260509222052 54 44 0.0 1.0 0.25 0.40 0.39 95 1011.2
20260509221552 54 266 0.0 0.0 0.27 0.40 0.39 95 1011.3
20260509221056 54 330 0.0 1.0 0.30 0.40 0.39 94 1011.2
20260509220551 54 320 0.0 1.0 0.30 0.40 0.39 94 1011.3
20260509220055 54 44 0.0 0.0 0.28 0.39 0.38 94 1011.2
20260509215551 54 190 0.0 0.0 0.28 0.39 0.38 94 1011.0
20260509215051 55 82 0.0 0.0 0.20 0.28 0.28 94 1011.0
20260509214040 55 107 0.0 0.0 0.18 0.27 0.26 94 1010.9
20260509213540 55 34 0.0 0.0 0.16 0.25 0.24 93 1010.9
20260509213040 55 349 0.0 0.0 0.12 0.21 0.20 93 1010.9
20260509212539 55 37 0.0 0.0 0.13 0.19 0.18 93 1010.9
20260509212038 55 33 0.0 0.0 0.10 0.16 0.15 93 1010.9
20260509211545 55 304 0.0 0.0 0.08 0.14 0.13 93 1010.9
20260509211038 55 276 0.0 0.0 0.09 0.12 0.11 93 1010.9
20260509210538 55 248 0.0 0.0 0.09 0.10 0.09 92 1010.8
20260509210040 55 230 0.0 1.0 0.09 0.10 0.09 92 1010.7
20260509205537 55 207 0.0 0.0 0.09 0.10 0.09 92 1010.6
20260509205040 55 220 0.0 0.0 0.08 0.09 0.08 92 1010.8
20260509204036 55 357 0.0 0.0 0.08 0.09 0.08 92 1010.5
20260509203536 55 21 0.0 0.0 0.08 0.09 0.08 91 1010.5
20260509203036 55 250 0.0 0.0 0.08 0.09 0.08 91 1010.4
20260509202534 56 26 0.0 0.0 0.08 0.09 0.08 90 1010.3
20260509202037 56 29 0.0 0.0 0.05 0.06 0.05 89 1010.4
20260509201534 56 117 0.0 0.0 0.05 0.06 0.05 88 1010.4
20260509201033 56 66 0.0 0.0 0.03 0.04 0.03 87 1010.6
20260509200532 57 82 0.0 1.0 0.01 0.02 0.01 84 1010.4
20260509200037 57 94 0.0 1.0 0.00 0.01 0.00 83 1010.4
20260509195538 58 58 0.0 2.0 0.00 0.01 0.00 82 1010.7
20260509195030 58 44 0.0 1.0 0.00 0.01 0.00 81 1010.5
20260509194032 58 152 0.0 0.0 0.00 0.01 0.00 79 1010.4
20260509193530 58 49 0.0 0.0 0.00 0.01 0.00 79 1010.6
20260509193031 59 60 0.0 0.0 0.00 0.01 0.00 78 1010.5
20260509192531 59 117 0.0 0.0 0.00 0.01 0.00 77 1010.5
20260509192035 59 58 0.0 0.0 0.00 0.01 0.00 75 1010.5
20260509191531 59 95 0.0 3.0 0.00 0.01 0.00 74 1010.5
20260509191029 59 59 0.0 3.0 0.00 0.01 0.00 74 1010.5
20260509190529 59 128 0.0 1.0 0.00 0.01 0.00 73 1010.5
20260509190029 60 94 0.0 0.0 0.00 0.01 0.00 73 1010.5
20260509185529 59 92 0.0 1.0 0.00 0.01 0.00 74 1010.6
20260509185028 59 116 0.0 0.0 0.00 0.01 0.00 74 1010.6
20260509184026 59 62 0.0 2.0 0.00 0.01 0.00 75 1010.6
20260509183525 59 84 0.0 2.0 0.00 0.01 0.00 73 1010.7
20260509183025 60 102 0.0 1.0 0.00 0.01 0.00 74 1010.9
20260509182524 60 52 0.0 1.0 0.00 0.01 0.00 74 1010.8
20260509182026 59 89 0.0 1.0 0.00 0.01 0.00 75 1010.8
20260509181522 59 32 0.0 1.0 0.00 0.01 0.00 75 1010.9
20260509181021 59 98 0.0 1.0 0.00 0.01 0.00 77 1010.9
20260509180523 58 279 0.0 1.0 0.00 0.01 0.00 78 1010.9
20260509180022 58 49 0.0 0.0 0.00 0.01 0.00 78 1010.9
20260509175520 57 35 0.0 0.0 0.00 0.01 0.00 79 1011.0
20260509175019 57 38 0.0 0.0 0.00 0.01 0.00 80 1011.0
20260509174019 56 101 0.0 0.0 0.00 0.01 0.00 80 1011.1
20260509173521 56 43 0.0 0.0 0.00 0.01 0.00 80 1011.3
20260509173019 56 27 0.0 1.0 0.00 0.01 0.00 81 1011.2
20260509172519 56 35 0.0 1.0 0.00 0.01 0.00 81 1010.9
20260509172018 55 101 0.0 0.0 0.00 0.01 0.00 81 1011.5
20260509171517 55 8 0.0 0.0 0.00 0.01 0.00 81 1011.6
20260509171015 55 141 0.0 1.0 0.00 0.01 0.00 80 1011.9
20260509170515 55 114 0.0 1.0 0.00 0.01 0.00 80 1011.8
20260509170015 55 105 0.0 0.0 0.00 0.01 0.00 80 1011.8
20260509165514 55 136 0.0 0.0 0.00 0.01 0.00 79 1011.7
20260509165013 56 64 0.0 0.0 0.00 0.01 0.00 77 1011.7
20260509164014 56 87 0.0 0.0 0.00 0.01 0.00 76 1011.7
20260509163511 56 8 0.0 1.0 0.00 0.01 0.00 76 1011.7
20260509163010 57 97 0.0 1.0 0.00 0.01 0.00 76 1011.7
20260509162510 57 40 0.0 0.0 0.00 0.01 0.00 74 1011.8
20260509162010 57 296 0.0 1.0 0.00 0.01 0.00 73 1011.7
20260509161507 58 105 0.0 1.0 0.00 0.01 0.00 72 1011.8
20260509161008 58 203 0.0 1.0 0.00 0.01 0.00 72 1011.8
20260509160507 58 83 0.0 0.0 0.00 0.01 0.00 72 1011.8
20260509160006 58 73 0.0 0.0 0.00 0.01 0.00 71 1011.8
20260509155506 58 79 0.0 0.0 0.00 0.01 0.00 73 1011.8
20260509155004 58 137 0.0 0.0 0.00 0.01 0.00 73 1011.9
20260509154003 58 83 0.0 1.0 0.00 0.01 0.00 73 1012.0
20260509153501 58 60 0.0 0.0 0.00 0.01 0.00 73 1012.1
20260509153103 58 74 0.0 0.0 0.00 0.01 0.01 72 1012.1
20260509153001 58 90 0.0 0.0 0.00 0.01 0.01 73 1012.1
20260509152559 59 137 0.0 0.0 0.00 0.01 0.01 73 1012.1
20260509152058 58 84 0.0 0.0 0.00 0.01 0.01 73 1012.2
20260509151558 59 22 0.0 0.0 0.00 0.01 0.01 73 1012.1
20260509151056 59 56 0.0 0.0 0.00 0.01 0.01 72 1012.1
20260509150553 59 134 0.0 0.0 0.00 0.01 0.01 73 1012.0
20260509150054 58 312 0.0 0.0 0.00 0.01 0.01 74 1012.1
20260509145551 58 39 0.0 0.0 0.00 0.01 0.01 74 1012.1
20260509145047 58 236 0.0 0.0 0.00 0.01 0.01 74 1012.1
20260509144046 57 219 0.0 1.0 0.00 0.01 0.01 77 1012.3
20260509143546 57 86 0.0 1.0 0.00 0.01 0.01 76 1012.3
20260509143049 57 25 0.0 0.0 0.00 0.01 0.01 78 1012.2
20260509142542 56 114 0.0 0.0 0.00 0.01 0.01 78 1012.0
20260509142045 56 349 0.0 0.0 0.00 0.01 0.01 78 1011.9
20260509141544 56 93 0.0 0.0 0.01 0.01 0.01 80 1011.8
20260509141043 56 68 0.0 0.0 0.01 0.01 0.01 81 1012.1
20260509140537 55 94 0.0 0.0 0.01 0.01 0.01 82 1012.2
20260509140045 55 94 0.0 0.0 0.01 0.01 0.01 81 1012.4
20260509135534 55 71 0.0 0.0 0.01 0.01 0.01 82 1012.5
20260509135036 55 43 0.0 0.0 0.01 0.01 0.01 84 1012.6
20260509134054 54 39 0.0 0.0 0.01 0.01 0.01 85 1012.6
20260509133553 54 199 0.0 0.0 0.01 0.01 0.01 86 1012.8
20260509133051 54 63 0.0 1.0 0.01 0.01 0.01 89 1012.8
20260509132551 53 148 0.0 0.0 0.01 0.01 0.01 90 1012.8
20260509132048 53 288 0.0 0.0 0.01 0.01 0.01 90 1013.0
20260509131546 53 245 0.0 0.0 0.01 0.01 0.01 91 1013.0
20260509131045 52 127 0.0 0.0 0.00 0.00 0.00 92 1013.1
20260509130548 52 74 0.0 0.0 0.00 0.00 0.00 93 1013.1
20260509130047 52 72 0.0 0.0 0.00 0.00 0.00 94 1013.1
20260509125541 52 38 0.0 0.0 0.00 0.00 0.00 94 1013.1
20260509125042 51 275 0.0 0.0 0.00 0.00 0.00 95 1013.0
20260509124028 51 350 0.0 0.0 0.00 0.00 0.00 95 1012.9
20260509123525 50 15 0.0 0.0 0.00 0.00 0.00 95 1012.9
20260509123033 50 4 0.0 0.0 0.00 0.00 0.00 95 1012.9
20260509122523 50 337 0.0 0.0 0.00 0.00 0.00 95 1012.9
20260509122021 49 337 0.0 0.0 0.00 0.00 0.00 95 1013.1
20260509121520 49 337 0.0 0.0 0.00 0.00 0.00 95 1013.1
20260509121019 49 337 0.0 0.0 0.00 0.00 0.00 95 1013.0
20260509120516 48 337 0.0 0.0 0.00 0.00 0.00 95 1013.0
20260509120016 48 337 0.0 0.0 0.00 0.00 0.00 95 1012.9
20260509115513 48 337 0.0 0.0 0.00 0.00 0.00 95 1012.7
20260509115020 48 337 0.0 0.0 0.00 0.00 0.00 95 1012.8
20260509114059 47 319 0.0 0.0 0.00 0.00 0.00 95 1013.0
20260509113559 47 319 0.0 0.0 0.00 0.00 0.00 95 1013.0
20260509113118 47 319 0.0 0.0 0.00 0.00 0.00 94 1013.0
20260509112553 47 319 0.0 0.0 0.00 0.00 0.00 94 1013.2
20260509112051 47 319 0.0 0.0 0.00 0.00 0.00 94 1013.3
20260509111555 0 0.0 0.0 0.00 0.00 0.00 1013.4
20260509111051 0 0.0 0.0 0.00 0.00 0.00 1013.4
20260509110549 0 0.0 0.0 0.00 0.00 0.00 1013.4
20260509110048 0 0.0 0.0 0.00 0.00 0.00 1013.5
20260509105547 0 0.0 0.0 0.00 0.00 0.00 1013.3
20260509105045 0 0.0 0.0 0.00 0.00 0.00 1013.3
20260509104645 0 0.0 0.0 0.00 0.00 0.00 1013.6
20260509104044 0 0.0 0.0 0.00 0.00 0.00 1013.5
20260509103542 0 0.0 0.0 0.00 0.00 0.00 1013.4
20260509103050 0 0.0 0.0 0.00 0.00 0.00 1013.1
20260509102540 0 0.0 0.0 0.00 0.00 0.00 1013.0
20260509102038 0 0.0 0.0 0.00 0.00 0.00 1013.0
20260509101537 0 0.0 0.0 0.00 0.00 0.00 1013.1
20260509101035 0 0.0 0.0 0.00 0.00 0.00 1013.2
20260509100534 0 0.0 0.0 0.00 0.00 0.00 1013.0
20260509100040 0 0.0 0.0 0.00 0.00 0.00 1013.2
20260509095531 0 0.0 0.0 0.00 0.00 0.00 1013.2
20260509095030 0 0.0 0.0 0.00 0.00 0.00 1013.1
20260509094629 0 0.0 0.0 0.00 0.00 0.00 1012.8
20260509094030 0 0.0 0.0 0.00 0.00 0.00 1012.7
20260509093530 0 0.0 0.0 0.00 0.00 0.00 1012.6
20260509093026 0 0.0 0.0 0.00 0.00 0.00 1012.5
20260509092525 0 0.0 0.0 0.00 0.00 0.00 1012.4
20260509092023 0 0.0 0.0 0.00 0.00 0.00 1012.3
20260509091522 -90 3 0.0 0.0 0.00 0.00 0.00 93 1012.2
20260509091020 -90 3 0.0 0.0 0.00 0.00 0.00 93 1012.2
20260509090519 45 3 0.0 0.0 0.00 0.00 0.00 91 1012.0
20260509090019 44 3 0.0 0.0 0.00 0.00 0.00 91 1012.1
20260509085518 44 3 0.0 0.0 0.00 0.00 0.00 91 1012.2
20260509085018 44 3 0.0 0.0 0.00 0.00 0.00 91 1012.1
20260509084618 44 3 0.0 0.0 0.00 0.00 0.00 91 1012.1
20260509084018 44 3 0.0 0.0 0.00 0.00 0.00 90 1012.1
20260509083518 44 3 0.0 0.0 0.00 0.00 0.00 90 1012.0
20260509083024 44 3 0.0 0.0 0.00 0.00 0.00 90 1012.0
20260509082517 44 3 0.0 0.0 0.00 0.00 0.00 90 1012.1
20260509082017 44 3 0.0 0.0 0.00 0.00 0.00 90 1012.0
20260509081517 44 3 0.0 0.0 0.00 0.00 0.00 90 1012.1
20260509081016 44 3 0.0 0.0 0.00 0.00 0.00 90 1012.2
20260509080520 44 3 0.0 0.0 0.00 0.00 0.00 90 1012.1
20260509080016 44 3 0.0 0.0 0.00 0.00 0.00 90 1012.2
20260509075516 44 3 0.0 0.0 0.00 0.00 0.00 90 1012.2